Weather History for Frederick, MD

Change the Weather History Date:

Monday, June 16, 2014

  Actual Average (KHGR) Record (KHGR)
Temperature  
Mean Temperature 74 °F -  
Max Temperature 91 °F 78 °F 89 °F (2014)
Min Temperature 57 °F 59 °F 53 °F (2007)
Cooling Degree Days 9    
Growing Degree Days 24 (Base 50)    
Moisture  
Dew Point 64 °F    
Average Humidity 89    
Maximum Humidity 100    
Minimum Humidity 43    
Precipitation  
Precipitation 0.00 in - - ()
Sea Level Pressure  
Sea Level Pressure 30.14 in    
Wind  
Wind Speed 0 mph (SSE)    
Max Wind Speed 6 mph    
Max Gust Speed -    
Visibility 8 miles    
Events Fog , Rain , Thunderstorm    
Averages and records for this station are not official NWS values.
T = Trace of Precipitation, MM = Missing Value Source: NWS Daily Summary

Daily Weather History Graph

Daily Weather History Graph

Search for Another Location

Airport:

Trip Planner

Search our weather history database for the weather conditions in past years. The results will help you decide how hot, cold, wet, or windy it might be!

Date:

Astronomy

Jun. 16, 2014 Rise Set
Actual Time 5:41 AM EDT 8:38 PM EDT
Civil Twilight 5:09 AM EDT 9:10 PM EDT
Nautical Twilight 4:28 AM EDT 9:51 PM EDT
Astronomical Twilight 3:41 AM EDT 10:39 PM EDT
Moon 11:30 PM EDT (6/16) 9:42 AM EDT (6/16)
Length of Visible Light 16h 01m
Length of Day
14h 56m
Waning Gibbous, 83% of the Moon is Illuminated
Jun 16
Waning Gibbous
Jun 19
Last Quarter
Jun 27
New
Jul 5
First Quarter
Jul 12
Full

Hourly Weather History & Observations

Time (EDT) Temp. Heat Index Dew Point Humidity Pressure Visibility Wind Dir Wind Speed Gust Speed Precip Events Conditions
12:10 AM 60.8 °F - 60.8 °F 100% 30.16 in 10.0 mi Calm Calm - N/A   Clear
12:30 AM 60.8 °F - 60.8 °F 100% 30.17 in 10.0 mi Calm Calm - N/A   Clear
12:50 AM 59.0 °F - 59.0 °F 100% 30.17 in 10.0 mi Calm Calm - N/A   Clear
1:10 AM 60.8 °F - 60.8 °F 100% 30.16 in 7.0 mi Calm Calm - N/A   Clear
1:30 AM 60.8 °F - 60.8 °F 100% 30.15 in 7.0 mi Calm Calm - N/A   Clear
1:50 AM 59.0 °F - 59.0 °F 100% 30.15 in 0.8 mi Calm Calm - N/A   Mist
2:10 AM 60.8 °F - 60.8 °F 100% 30.15 in 7.0 mi Calm Calm - N/A   Clear
2:30 AM 59.0 °F - 59.0 °F 100% 30.15 in 7.0 mi Calm Calm - N/A   Clear
2:50 AM 59.0 °F - 59.0 °F 100% 30.15 in 5.0 mi Calm Calm - N/A   Clear
3:10 AM 59.0 °F - 59.0 °F 100% 30.15 in 7.0 mi Calm Calm - N/A   Clear
3:30 AM 59.0 °F - 59.0 °F 100% 30.14 in 4.0 mi Calm Calm - N/A   Clear
3:50 AM 59.0 °F - 59.0 °F 100% 30.15 in 1.8 mi Calm Calm - N/A   Mist
4:05 AM 59.0 °F - 59.0 °F 100% 30.15 in 10.0 mi Calm Calm - N/A   Clear
4:30 AM 59.0 °F - 59.0 °F 100% 30.15 in 5.0 mi Calm Calm - N/A   Clear
4:50 AM 59.0 °F - 59.0 °F 100% 30.15 in 5.0 mi Calm Calm - N/A   Clear
5:10 AM 59.0 °F - 59.0 °F 100% 30.16 in 2.5 mi Calm Calm - N/A   Clear
5:30 AM 59.0 °F - 59.0 °F 100% 30.16 in 4.0 mi Calm Calm - N/A   Clear
5:50 AM 57.2 °F - 57.2 °F 100% 30.16 in 0.5 mi Calm Calm - N/A Fog Fog
6:10 AM 57.2 °F - 57.2 °F 100% 30.17 in 0.2 mi Calm Calm - N/A Fog Fog
6:30 AM 59.0 °F - 59.0 °F 100% 30.17 in 5.0 mi Calm Calm - N/A   Clear
6:35 AM 59.0 °F - 59.0 °F 100% 30.17 in 4.0 mi Calm Calm - N/A   Clear
6:45 AM 60.8 °F - 60.8 °F 100% 30.17 in 10.0 mi Calm Calm - N/A   Clear
7:47 AM 64.4 °F - 64.4 °F 100% 30.18 in 10.0 mi Calm Calm - N/A   Clear
8:47 AM 69.8 °F - 64.4 °F 83% 30.18 in 10.0 mi Calm Calm - N/A   Clear
9:45 AM 75.2 °F - 66.2 °F 73% 30.18 in 10.0 mi Calm Calm - N/A   Clear
10:45 AM 80.6 °F 83.9 °F 69.8 °F 70% 30.17 in 10.0 mi Calm Calm - N/A   Clear
11:48 AM 84.2 °F 86.6 °F 66.2 °F 55% 30.16 in 10.0 mi Calm Calm - N/A   Clear
12:45 PM 89.6 °F 91.1 °F 64.4 °F 43% 30.15 in 10.0 mi Calm Calm - N/A   Clear
1:49 PM 89.6 °F 91.1 °F 64.4 °F 43% 30.14 in 10.0 mi South 3.5 mph - N/A   Scattered Clouds
2:50 PM 89.6 °F 92.2 °F 66.2 °F 46% 30.12 in 10.0 mi Calm Calm - N/A   Clear
3:50 PM 91.4 °F 94.0 °F 66.2 °F 43% 30.10 in 10.0 mi WSW 5.8 mph - N/A   Clear
4:45 PM 89.6 °F 92.2 °F 66.2 °F 46% 30.08 in 10.0 mi Variable 4.6 mph - N/A   Clear
5:55 PM 89.6 °F 92.2 °F 66.2 °F 46% 30.07 in 10.0 mi South 4.6 mph - N/A   Clear
6:45 PM 84.2 °F 88.4 °F 69.8 °F 62% 30.07 in 10.0 mi Variable 3.5 mph - N/A Rain , Thunderstorm Thunderstorms and Rain
7:45 PM 77.0 °F - 73.4 °F 89% 30.09 in 10.0 mi North - - N/A   Scattered Clouds
8:50 PM 73.4 °F - 73.4 °F 100% 30.10 in 10.0 mi ESE 3.5 mph - N/A   Clear
9:10 PM 73.4 °F - 73.4 °F 100% 30.09 in 10.0 mi SE 4.6 mph - N/A   Clear
9:30 PM 71.6 °F - 71.6 °F 100% 30.09 in 10.0 mi Calm Calm - N/A   Clear
9:50 PM 71.6 °F - 71.6 °F 100% 30.10 in 10.0 mi Calm Calm - N/A   Clear
10:10 PM 71.6 °F - 71.6 °F 100% 30.11 in 10.0 mi Calm Calm - N/A   Clear
10:30 PM 71.6 °F - 71.6 °F 100% 30.12 in 7.0 mi Calm Calm - N/A   Clear
10:50 PM 71.6 °F - 71.6 °F 100% 30.12 in 10.0 mi Calm Calm - N/A   Clear
11:10 PM 69.8 °F - 69.8 °F 100% 30.12 in 7.0 mi Calm Calm - N/A   Clear
11:30 PM 69.8 °F - 69.8 °F 100% 30.12 in 10.0 mi SE 4.6 mph - N/A   Clear
11:50 PM 69.8 °F - 69.8 °F 100% 30.12 in 10.0 mi South 3.5 mph - N/A   Scattered Clouds